Preview of NWS' New Version of Forecast
This preview is not operational and should not be used for support decisions.

Regional Weather Roundup (RWR)

Issued by National Weather Service (NWS)

                            
000
ASUS42 KTBW 191717
RWRFL 
FLORIDA REGIONAL WEATHER ROUNDUP
NATIONAL WEATHER SERVICE TAMPA BAY RUSKIN FL
100 PM EDT TUE MAR 19 2019

NOTE: "FAIR" INDICATES FEW OR NO CLOUDS BELOW 12,000 FEET WITH NO
SIGNIFICANT WEATHER AND/OR OBSTRUCTIONS TO VISIBILITY.

FLZ001>010-012>015-112-114-115-191800-
PANHANDLE FLORIDA
  
CITY           SKY/WX    TMP DP  RH WIND       PRES   REMARKS
PENSACOLA      FAIR      60  26  27 N10       30.27F                  
PENSACOLA NAS  PTSUNNY   63  26  24 NE15      30.27F                  
MILTON NAS     PTSUNNY   59  27  29 VRB3      30.28F                  
CRESTVIEW      FAIR      61  28  28 VRB7      30.29F                  
PANAMA CITY    FAIR      61  32  33 NE8G17    30.24F                  
APALACHICOLA   FAIR      63  36  36 E8        30.22F                  

STATION/POSITION SKY/WX   TEMP    WIND        PRES    WAVE   SWELL
                          AIR SEA DIR/SP/G            HT/PER HT/PER
                          (F)     (DEG/KT/KT) (MB)    (FT/S) (FT/S)
30.1N   87.6W                                 1025.7F   3/ 5   2/11
29.2N   88.2W                      30/ 17/ 21 1025.3R   6/ 6   2/17
PANAMA CITY BEAC           58 63   40/  7/ 14 1024.6F
TOWER C                    58      60/ 20/ 21 1023.2R

$$
FLZ011-016>038-118-127-128-134-139-239-191800-
NORTH FLORIDA
  
CITY           SKY/WX    TMP DP  RH WIND       PRES   REMARKS
MARIANNA       FAIR      59  33  37 NE12G20   30.26F                  
TALLAHASSEE    CLOUDY    61  41  47 E9        30.25S                  
PERRY          FAIR      65  45  47 NE10G18   30.23S                  
LIVE OAK       SUNNY     66  48  52 NE13      30.22F                  
CROSS CITY     FAIR      68  50  51 NE12G18   30.20S                  
LAKE CITY      PTSUNNY   61  50  67 NE8G16    30.22F                  
GAINESVILLE    FAIR      71  54  54 NE14G24   30.22F                  
WILLISTON        N/A    N/A N/A N/A MISG        N/A                   
PALATKA        PTSUNNY   66  55  68 NE15G22   30.20R                  
MAYPORT NAS    CLOUDY    63  54  72 NE25G35   30.23R                  
JACKSONVILLE   CLOUDY    61  50  67 NE24G31   30.24S                  
JAX NAS        PTSUNNY   65  52  62 NE24G35   30.23S                  
JAX CECIL      CLOUDY   N/A N/A N/A N17G25    30.23R                  
FERNANDINA BEA CLOUDY    62  52  69 NE26G35   30.26R                  
ST AUGUSTINE   CLOUDY    64  56  75 N22G28    30.21S                  
PALM COAST     MOSUNNY   68  54  60 NE7       30.17S                  

STATION/POSITION SKY/WX   TEMP    WIND        PRES    WAVE   SWELL
                          AIR SEA DIR/SP/G            HT/PER HT/PER
                          (F)     (DEG/KT/KT) (MB)    (FT/S) (FT/S)
SHELL POINT      NOT AVBL
KEATON BEACH               64      60/  9/ 13 1022.8F
CEDAR KEY                  63      70/ 14/ 15 1021.8F
FERNANDINA                 60 63  360/ 14/ 19 1025.4R
30.7N   81.3W                 62                N/A     8/ 8   2/11
MAYPORT                    62 63   30/ 24/ 29 1024.0R
31.4N   80.9W              57 62   40/ 27/ 33 1024.7R   7/ 8   2/11
ST AUGUSTINE               64 63   10/ 21/ 23 1022.3F

$$
FLZ040-043>046-052-053-057-058-063-144-191800-
INTERIOR CENTRAL FLORIDA
  
CITY           SKY/WX    TMP DP  RH WIND       PRES   REMARKS
OCALA          FAIR      65  51  60 N12G17    30.19S                  
LEESBURG       LGT RAIN  60  55  83 N8        30.19R                  
SANFORD        LGT RAIN  64  59  83 NE6       30.16S                  
ORLANDO EXEC   CLOUDY    64  58  80 NE5       30.15S                  
ORLANDO INTL   LGT RAIN  62  57  83 NE8       30.15S                  
KISSIMMEE      CLOUDY    61  57  87 NE5       30.16S                  
WINTER HAVEN   CLOUDY    60  56  86 N8        30.16R                  
LAKELAND       CLOUDY    59  54  82 NE9       30.15S                  
BARTOW         CLOUDY    59  57  94 NE7       30.13F                  
SEBRING        CLOUDY    62  60  93 NE16      30.12S                  
OKEECHOBEE       N/A     61  59  94 NE10      30.11S                  

$$
FLZ041-047-054-059-064-141-147-191800-
EAST CENTRAL FLORIDA
  
CITY           SKY/WX    TMP DP  RH WIND       PRES   REMARKS
ORMOND BEACH   CLOUDY    66  55  68 E6        30.16S                  
DAYTONA BEACH  CLOUDY    67  57  70 E6        30.16S                  
DELAND         LGT RAIN  63  57  82 NW5       30.17R                  
NEW SMYRNA BEA MOSUNNY   66  57  72 E7        30.16F                  
TITUSVILLE     CLOUDY    66  59  77 E6        30.15S FOG              
MELBOURNE      LGT RAIN  65  60  84 E10       30.13S                  
VERO BEACH     CLOUDY    64  59  83 E14G24    30.11F                  
FT PIERCE      LGT RAIN  63  58  83 E10       30.10F                  
STUART         RAIN      66  61  82 NE16G23   30.12F                  

STATION/POSITION SKY/WX   TEMP    WIND        PRES    WAVE   SWELL
                          AIR SEA DIR/SP/G            HT/PER HT/PER
                          (F)     (DEG/KT/KT) (MB)    (FT/S) (FT/S)
28.5N   80.2W              68      70/ 17/ 23 1020.6S   6/ 8   3/ 8
28.9N   78.5W              64 74   80/ 14/ 17 1020.7F   6/ 8   5/ 8
TRIDENT PIER               64 68   40/  7/ 10 1021.6R
28.4N   80.5W                 66                N/A     3/ 8
27.5N   80.2W                 69                N/A     7/ 8   2/11

$$
FLZ050-056-061-142-242-148-248-149-249-151-251-155-255-
160-260-191800-
WEST CENTRAL FLORIDA
  
CITY           SKY/WX    TMP DP  RH WIND       PRES   REMARKS
CRYSTAL RIVER  CLOUDY    63  48  59 E10       30.19S                  
INVERNESS      LGT RAIN  61  54  77 NE5       30.19S                  
BROOKSVILLE    CLOUDY    59  51  75 N7        30.19R                  
CLEARWATER AIR CLOUDY    59  50  72 NE6       30.16F                  
ST PETE CLEARW CLOUDY    61  52  72 NE10      30.15F                  
TAMPA INTL     CLOUDY    61  52  72 NE8       30.16F                  
TAMPA EXEC     LGT RAIN  59  55  88 NE5       30.16F                  
PLANT CITY     CLOUDY    61  55  82 N7        30.17S                  
PETER O KNIGHT DRIZZLE   59  55  88 NE10      30.15F                  
ST PETERSBURG  LGT RAIN  61  54  77 NE15      30.13F                  
SARASOTA       LGT RAIN  61  57  87 NE12      30.11F                  
VENICE         CLOUDY    63  59  88 NE10      30.13S                  

STATION/POSITION SKY/WX   TEMP    WIND        PRES    WAVE   SWELL
                          AIR SEA DIR/SP/G            HT/PER HT/PER
                          (F)     (DEG/KT/KT) (MB)    (FT/S) (FT/S)
27.3N   84.2W                 72                N/A     6/ 6
CLEARWATER BEACH                   10/ 11/ 13   N/A
MIDDLE TAMPA BAY           61      70/ 17/ 19 1021.0F
VENICE                     61 72   50/  8/ 11 1019.8F

$$
FLZ066-069-070-075>078-162-262-165-265-191800-
SOUTHWEST FLORIDA AND KEYS
  
CITY           SKY/WX    TMP DP  RH WIND       PRES   REMARKS
PUNTA GORDA    CLOUDY    62  59  90 NE10      30.13R                  
FT MYERS       CLOUDY    62  60  93 NE14      30.09R                  
SOUTHWEST INTL LGT RAIN  62  59  90 NE12      30.09R                  
NAPLES         LGT RAIN N/A N/A N/A E9G17     30.05F                  
MARCO ISLAND   PTSUNNY   64  62  93 NE13G20   30.06F                  
IMMOKALEE      CLOUDY    64  63  94 E10G16    30.05F                  
MARATHON       LGT RAIN  70  64  81 NE20G31   30.04F                  
KEY WEST NAS   CLOUDY    70  65  84 NE20G28   30.00F                  
KEY WEST INTL  LGT RAIN  69  66  90 NE15G28   30.00F                  

STATION/POSITION SKY/WX   TEMP    WIND        PRES    WAVE   SWELL
                          AIR SEA DIR/SP/G            HT/PER HT/PER
                          (F)     (DEG/KT/KT) (MB)    (FT/S) (FT/S)
NAPLES                     63 74   70/  8/ 14 1017.5F
26.0N   85.6W              68 79   50/ 23/ 27 1019.1
DRY TORTUGAS               71      50/ 21/ 23 1016.5S
SAND KEY                   69                 1015.9F
SOMBRERO KEY               68                 1016.3F

$$
FLZ067-068-071>074-168-172>174-191800-
SOUTHEAST FLORIDA 
  
CITY           SKY/WX    TMP DP  RH WIND       PRES   REMARKS
W PALM BEACH   LGT RAIN  66  62  87 NE16      30.09F                  
BOCA RATON     HVY RAIN  66  64  94 NE14      30.09S                  
FT LAUDER-EXEC RAIN      68  68 100 N5        30.08F                  
FT LAUDERDALE  RAIN      70  66  87 NE8       30.07F FOG              
POMPANO BEACH  RAIN      68  64  87 N9        30.08F FOG              
PEMBROKE PINES LGT RAIN  67  65  93 NE7       30.09F FOG              
OPA LOCKA      LGT RAIN  68  65  90 NE7       30.09F                  
MIAMI          LGT RAIN  67  67 100 NE7       30.08F                  
WEST KENDALL   LGT RAIN  68  66  93 N6        30.08F FOG              
HOMESTEAD      NOT AVBL                                               

STATION/POSITION SKY/WX   TEMP    WIND        PRES    WAVE   SWELL
                          AIR SEA DIR/SP/G            HT/PER HT/PER
                          (F)     (DEG/KT/KT) (MB)    (FT/S) (FT/S)
PORT EVERGLADES            69      30/  8/ 17 1018.5
VIRGINIA KEY               68 77   10/  6/ 12 1017.5F
LAKE WORTH                 67 75   40/ 25/ 28 1019.8F
FOWEY ROCKS                69 77  360/ 21/ 23 1018.5F
SETTLEMENT POINT           67      40/ 26/ 30 1018.2F

$$